• Em Portugal
  • Lista de países
  • Para 7 dias
  • Temperatura da água
  • Mapas de satélite
  • Mapa do tempo
  • Widgets de tempo
  • user-avatar
    Iniciar Sessão

    Previsão horária em Budziska

    Hoje, 20 Agosto, Segunda-feira

    Tempo Temperatura Precipitação Vento Pressão Humidade
    00:00 +20°C° 0 mm 1 m/s 750 mmHg 68%
    01:00 +19°C° 0 mm 2 m/s 750 mmHg 65%
    02:00 +19°C° 0 mm 2 m/s 750 mmHg 64%
    03:00 +19°C° 0 mm 2 m/s 749 mmHg 62%
    04:00 +19°C° 0 mm 2 m/s 749 mmHg 61%
    05:00 +20°C° 0 mm 3 m/s 749 mmHg 59%
    06:00 +21°C° 0 mm 3 m/s 749 mmHg 58%
    07:00 +22°C° 0 mm 4 m/s 749 mmHg 57%
    08:00 +23°C° 0 mm 4 m/s 749 mmHg 54%
    09:00 +26°C° 0 mm 4 m/s 748 mmHg 51%
    10:00 +27°C° 0 mm 5 m/s 748 mmHg 49%
    11:00 +27°C° 0 mm 5 m/s 748 mmHg 51%
    12:00 +27°C° 0 mm 5 m/s 748 mmHg 53%
    13:00 +27°C° 0 mm 6 m/s 748 mmHg 56%
    14:00 +26°C° 0,1 mm 6 m/s 748 mmHg 59%
    15:00 +25°C° 0,1 mm 5 m/s 748 mmHg 63%
    16:00 +23°C° 0,1 mm 5 m/s 748 mmHg 67%
    17:00 +22°C° 0 mm 5 m/s 748 mmHg 70%
    18:00 +21°C° 0 mm 5 m/s 748 mmHg 73%
    19:00 +20°C° 0 mm 4 m/s 749 mmHg 77%
    20:00 +19°C° 0 mm 4 m/s 749 mmHg 77%
    21:00 +19°C° 0 mm 4 m/s 749 mmHg 78%
    22:00 +18°C° 0 mm 4 m/s 749 mmHg 78%
    23:00 +17°C° 0 mm 4 m/s 749 mmHg 77%

    Amanhã, 21 Agosto, Terça-feira

    Tempo Temperatura Precipitação Vento Pressão Humidade
    00:00 +17°C° 0 mm 4 m/s 749 mmHg 77%
    01:00 +16°C° 0 mm 3 m/s 750 mmHg 76%
    02:00 +16°C° 0 mm 3 m/s 750 mmHg 77%
    03:00 +14°C° 0 mm 3 m/s 750 mmHg 78%
    04:00 +14°C° 0 mm 3 m/s 750 mmHg 80%
    05:00 +16°C° 0 mm 3 m/s 751 mmHg 76%
    06:00 +17°C° 0 mm 4 m/s 751 mmHg 71%
    07:00 +18°C° 0 mm 4 m/s 752 mmHg 67%
    08:00 +19°C° 0 mm 4 m/s 752 mmHg 62%
    09:00 +20°C° 0 mm 4 m/s 753 mmHg 56%
    10:00 +22°C° 0 mm 4 m/s 753 mmHg 50%
    11:00 +22°C° 0 mm 4 m/s 753 mmHg 48%
    12:00 +23°C° 0 mm 4 m/s 753 mmHg 45%
    13:00 +25°C° 0 mm 4 m/s 753 mmHg 42%
    14:00 +24°C° 0 mm 3 m/s 753 mmHg 43%
    15:00 +24°C° 0 mm 3 m/s 753 mmHg 44%
    16:00 +24°C° 0 mm 3 m/s 753 mmHg 45%
    17:00 +21°C° 0 mm 3 m/s 753 mmHg 51%
    18:00 +20°C° 0 mm 2 m/s 754 mmHg 58%
    19:00 +18°C° 0 mm 2 m/s 754 mmHg 65%
    20:00 +17°C° 0 mm 2 m/s 754 mmHg 70%
    21:00 +16°C° 0 mm 2 m/s 754 mmHg 74%
    22:00 +15°C° 0 mm 1 m/s 754 mmHg 79%
    23:00 +15°C° 0 mm 1 m/s 754 mmHg 82%

    Depois de amanhã, 22 Agosto, Quarta-feira

    Tempo Temperatura Precipitação Vento Pressão Humidade
    00:00 +14°C° 0 mm 1 m/s 754 mmHg 84%
    01:00 +14°C° 0 mm 1 m/s 755 mmHg 86%
    02:00 +14°C° 0 mm 1 m/s 755 mmHg 87%
    03:00 +14°C° 0 mm 2 m/s 755 mmHg 87%
    04:00 +13°C° 0 mm 2 m/s 755 mmHg 88%
    05:00 +14°C° 0 mm 2 m/s 755 mmHg 83%
    06:00 +16°C° 0 mm 2 m/s 755 mmHg 78%
    07:00 +17°C° 0 mm 3 m/s 755 mmHg 73%
    08:00 +18°C° 0 mm 3 m/s 755 mmHg 66%
    09:00 +20°C° 0 mm 3 m/s 755 mmHg 60%
    10:00 +22°C° 0 mm 3 m/s 755 mmHg 53%
    11:00 +24°C° 0 mm 3 m/s 754 mmHg 50%
    12:00 +25°C° 0 mm 3 m/s 754 mmHg 46%
    13:00 +26°C° 0 mm 3 m/s 754 mmHg 43%
    14:00 +26°C° 0 mm 3 m/s 753 mmHg 42%
    15:00 +26°C° 0 mm 3 m/s 753 mmHg 42%
    16:00 +26°C° 0 mm 3 m/s 753 mmHg 41%
    17:00 +25°C° 0 mm 3 m/s 752 mmHg 47%
    18:00 +23°C° 0 mm 2 m/s 752 mmHg 52%
    19:00 +21°C° 0 mm 2 m/s 752 mmHg 58%
    20:00 +20°C° 0 mm 2 m/s 752 mmHg 59%
    21:00 +19°C° 0 mm 3 m/s 752 mmHg 61%
    22:00 +19°C° 0 mm 3 m/s 752 mmHg 63%
    23:00 +18°C° 0 mm 3 m/s 751 mmHg 62%

    23 Agosto, Quinta-feira

    Tempo Temperatura Precipitação Vento Pressão Humidade
    00:00 +18°C° 0 mm 3 m/s 751 mmHg 62%
    01:00 +18°C° 0 mm 3 m/s 751 mmHg 61%
    02:00 +18°C° 0 mm 3 m/s 751 mmHg 61%
    03:00 +18°C° 0 mm 3 m/s 750 mmHg 61%
    04:00 +18°C° 0 mm 3 m/s 750 mmHg 61%
    05:00 +19°C° 0 mm 3 m/s 750 mmHg 61%
    06:00 +19°C° 0 mm 3 m/s 750 mmHg 62%
    07:00 +20°C° 0 mm 3 m/s 750 mmHg 63%
    08:00 +22°C° 0 mm 3 m/s 750 mmHg 59%
    09:00 +23°C° 0 mm 4 m/s 749 mmHg 56%
    10:00 +26°C° 0 mm 4 m/s 749 mmHg 52%
    11:00 +27°C° 0 mm 4 m/s 749 mmHg 50%
    12:00 +27°C° 0 mm 4 m/s 749 mmHg 49%
    13:00 +28°C° 0 mm 4 m/s 748 mmHg 47%
    14:00 +28°C° 0 mm 3 m/s 748 mmHg 48%
    15:00 +28°C° 0 mm 3 m/s 748 mmHg 50%
    16:00 +28°C° 0 mm 2 m/s 747 mmHg 51%
    17:00 +27°C° 0 mm 2 m/s 747 mmHg 55%
    18:00 +26°C° 0 mm 2 m/s 747 mmHg 59%
    19:00 +25°C° 0 mm 2 m/s 747 mmHg 63%
    20:00 +24°C° 0 mm 2 m/s 746 mmHg 64%
    21:00 +24°C° 0 mm 2 m/s 746 mmHg 65%
    22:00 +22°C° 0 mm 3 m/s 746 mmHg 66%
    23:00 +22°C° 0,1 mm 3 m/s 746 mmHg 68%

    24 Agosto, Sexta-feira

    Tempo Temperatura Precipitação Vento Pressão Humidade
    00:00 +21°C° 0,1 mm 3 m/s 745 mmHg 69%
    01:00 +21°C° 0,1 mm 3 m/s 745 mmHg 70%
    02:00 +20°C° 0,1 mm 3 m/s 745 mmHg 73%
    03:00 +20°C° 0,1 mm 2 m/s 744 mmHg 77%
    04:00 +19°C° 0,1 mm 2 m/s 744 mmHg 80%
    05:00 +20°C° 0,1 mm 2 m/s 744 mmHg 79%
    06:00 +21°C° 0,1 mm 2 m/s 744 mmHg 77%
    07:00 +23°C° 0,1 mm 2 m/s 744 mmHg 76%
    08:00 +25°C° 0,2 mm 2 m/s 744 mmHg 70%
    09:00 +26°C° 0,2 mm 2 m/s 744 mmHg 64%
    10:00 +28°C° 0,2 mm 2 m/s 744 mmHg 58%
    11:00 +28°C° 0,8 mm 2 m/s 744 mmHg 58%
    12:00 +27°C° 0,8 mm 3 m/s 744 mmHg 59%
    13:00 +27°C° 0,8 mm 3 m/s 744 mmHg 60%
    14:00 +26°C° 1,9 mm 3 m/s 744 mmHg 67%
    15:00 +24°C° 1,9 mm 3 m/s 744 mmHg 74%
    16:00 +21°C° 1,9 mm 3 m/s 744 mmHg 81%
    17:00 +21°C° 1,4 mm 3 m/s 744 mmHg 84%
    18:00 +20°C° 1,4 mm 3 m/s 744 mmHg 86%
    19:00 +19°C° 1,4 mm 3 m/s 744 mmHg 89%
    20:00 +18°C° 0,1 mm 3 m/s 745 mmHg 88%
    21:00 +18°C° 0,1 mm 2 m/s 745 mmHg 88%
    22:00 +17°C° 0,1 mm 2 m/s 745 mmHg 88%
    23:00 +17°C° 0 mm 2 m/s 745 mmHg 88%

    25 Agosto, Sábado

    Tempo Temperatura Precipitação Vento Pressão Humidade
    00:00 +17°C° 0 mm 2 m/s 745 mmHg 88%
    01:00 +16°C° 0 mm 2 m/s 745 mmHg 89%
    02:00 +16°C° 0,1 mm 2 m/s 746 mmHg 88%
    03:00 +16°C° 0,1 mm 2 m/s 746 mmHg 87%
    04:00 +16°C° 0,1 mm 2 m/s 746 mmHg 87%
    05:00 +16°C° 0,2 mm 2 m/s 746 mmHg 86%
    06:00 +16°C° 0,2 mm 3 m/s 746 mmHg 85%
    07:00 +14°C° 0,2 mm 3 m/s 746 mmHg 85%
    08:00 +14°C° 0,5 mm 3 m/s 747 mmHg 85%
    09:00 +14°C° 0,5 mm 3 m/s 747 mmHg 85%
    10:00 +14°C° 0,5 mm 3 m/s 747 mmHg 86%
    11:00 +14°C° 0,6 mm 3 m/s 748 mmHg 84%
    12:00 +15°C° 0,6 mm 2 m/s 748 mmHg 82%
    13:00 +15°C° 0,6 mm 2 m/s 748 mmHg 80%
    14:00 +16°C° 0,1 mm 2 m/s 748 mmHg 73%
    15:00 +17°C° 0,1 mm 2 m/s 748 mmHg 67%
    16:00 +18°C° 0,1 mm 2 m/s 748 mmHg 60%
    17:00 +18°C° 0 mm 1 m/s 748 mmHg 63%
    18:00 +16°C° 0 mm 1 m/s 748 mmHg 66%
    19:00 +15°C° 0 mm 1 m/s 748 mmHg 69%
    20:00 +15°C° 0 mm 1 m/s 748 mmHg 71%
    21:00 +14°C° 0 mm 1 m/s 748 mmHg 72%
    22:00 +14°C° 0 mm 1 m/s 748 mmHg 74%
    23:00 +13°C° 0 mm 1 m/s 748 mmHg 76%
    Mostrar mais